FW6037 Weather Reports


time (UTC)temp
F
wind
direction
speed
knots
gust
knots
rain 1hr
in
rain 24hr
in
rain mn
in
humidity
%
barometer
mb
20260505091552 37 266 0.9 3.5 0.00 0.40 0.00 93 1008.5
20260505090042 37 267 0.0 2.6 0.00 0.40 0.00 92 1008.3
20260505084548 38 267 0.0 3.5 0.00 0.41 0.00 93 1008.1
20260505083053 38 210 0.9 2.6 0.00 0.41 0.00 91 1007.8
20260505081537 38 224 0.9 5.2 0.00 0.41 0.00 93 1007.7
20260505080035 38 248 0.9 3.5 0.00 0.41 0.00 92 1007.4
20260505074535 38 247 0.9 3.5 0.00 0.43 0.00 91 1007.3
20260505073028 39 247 0.0 2.6 0.00 0.43 0.00 89 1007.0
20260505071526 40 245 0.0 3.5 0.00 0.43 0.00 88 1006.7
20260505070023 41 250 1.7 5.2 0.00 0.43 0.00 89 1006.5
20260505064531 41 208 0.0 3.5 0.00 0.46 0.00 88 1006.3
20260505063017 41 177 0.9 4.3 0.00 0.46 0.00 89 1006.0
20260505061513 42 270 0.0 2.6 0.00 0.46 0.00 85 1005.7
20260505060011 44 268 0.9 7.0 0.00 0.46 0.00 83 1005.5
20260505054516 45 252 0.9 6.1 0.00 0.46 0.00 81 1005.2
20260505053003 46 268 0.9 9.6 0.00 0.46 0.00 80 1005.0
20260505051501 46 235 0.9 8.7 0.00 0.46 0.00 80 1004.8
20260505050109 46 268 2.6 9.6 0.00 0.46 0.00 80 1004.6
20260505041604 47 306 1.7 9.6 0.00 0.46 0.00 81 1004.2
20260505034608 46 245 1.7 7.8 0.00 0.46 0.00 81 1003.9
20260505033050 46 253 2.6 10.4 0.00 0.46 0.00 80 1003.6
20260505031546 46 222 1.7 7.0 0.00 0.46 0.00 80 1003.4
20260505030048 47 258 1.7 10.4 0.00 0.46 0.00 79 1003.2
20260505024542 47 247 2.6 10.4 0.00 0.48 0.46 78 1002.9
20260505023044 45 236 2.6 7.0 0.00 0.48 0.46 79 1002.8
20260505021540 44 286 2.6 9.6 0.00 0.48 0.46 81 1002.6
20260505020052 42 253 2.6 7.0 0.00 0.48 0.46 87 1002.5
20260505014541 38 224 0.0 5.2 0.00 0.56 0.46 91 1002.5
20260505013040 37 250 0.9 5.2 0.00 0.56 0.46 90 1002.4
20260505011536 37 233 0.9 3.5 0.00 0.56 0.46 89 1002.4
20260505010033 37 233 0.9 3.5 0.00 0.56 0.46 88 1002.0
20260505004555 38 237 1.7 3.5 0.00 0.85 0.46 87 1001.8
20260505003032 39 237 0.0 2.6 0.00 0.85 0.46 85 1002.0
20260505001535 39 245 0.0 4.3 0.00 0.85 0.46 84 1001.5
20260505000033 40 174 0.9 2.6 0.00 0.85 0.46 83 1001.5
20260504234528 42 170 0.0 1.7 0.00 0.99 0.46 79 1001.2
20260504233026 44 172 0.0 3.5 0.00 0.99 0.46 75 1001.0
20260504231524 45 213 0.9 3.5 0.00 0.99 0.46 73 1000.7
20260504230023 47 216 0.0 3.5 0.00 0.99 0.46 71 1000.5
20260504224529 49 208 0.9 9.6 0.00 1.24 0.46 64 1000.3
20260504223021 50 301 5.2 11.3 0.00 1.24 0.46 62 1000.2
20260504221517 50 222 7.0 16.5 0.00 1.24 0.46 60 999.9
20260504220116 51 311 8.7 18.2 0.00 1.24 0.46 60 999.5
20260504214514 51 256 7.8 17.4 0.00 1.28 0.46 61 999.1
20260504213029 52 294 5.2 16.5 0.00 1.28 0.46 60 998.6
20260504211513 52 241 7.0 20.0 0.00 1.28 0.46 61 998.6
20260504210110 52 251 12.2 27.8 0.00 1.28 0.46 61 998.5
20260504204611 52 276 9.6 24.3 0.00 1.39 0.46 61 998.5
20260504203005 52 248 10.4 20.9 0.00 1.39 0.46 62 998.0
20260504201501 52 296 8.7 24.3 0.00 1.39 0.46 64 997.7
20260504194603 52 279 11.3 21.7 0.00 1.40 0.46 67 997.1
20260504193053 51 211 10.4 26.9 0.00 1.40 0.46 69 997.0
20260504191610 50 227 7.0 21.7 0.00 1.40 0.46 72 996.5
20260504190048 50 287 10.4 31.3 0.00 1.40 0.46 71 996.0
20260504184555 50 262 9.6 23.5 0.00 1.40 0.46 74 995.7
20260504183141 49 317 11.3 25.2 0.00 1.40 0.46 76 995.4
20260504181538 48 195 13.0 21.7 0.00 1.40 0.46 80 995.2
20260504180037 47 241 11.3 21.7 0.00 1.40 0.46 83 995.2
20260504174532 46 270 14.8 29.5 0.00 1.40 0.46 84 994.8
20260504173028 46 245 7.8 26.1 0.00 1.40 0.46 88 994.4
20260504171524 44 301 7.0 23.5 0.02 1.40 0.46 91 994.2
20260504140103 39 273 7.8 32.2 0.05 1.12 0.18 94 987.6